NORTHERN QUEENS  -  Air Quality Alert Air Quality Alert        SOUTHERN QUEENS  -  Air Quality Alert Air Quality Alert      

Active alerts

Northern Queens
  Details for Northern Queens Air Quality Alert
Southern Queens
  Details for Southern Queens Air Quality Alert


WXM80 ListenWXM80 Stop

You find our weather info also at:

UK Metoffice

WeatherCloud

Weather Underground

Northeastern Weather Network

AWEKAS

Citizen Weather Observer Program (CWOP)

HAMweather, WeatherForYou, PWS Weather


Weather Underground History page Text

Daily Summary for October 27, 2017 Units:  Metric    English   Both
« Previous Day
Next Day »
Daily Weekly Monthly Yearly Custom
  High: Low: Average:
Temperature: 18.4 °C 8.4 °C 12.4 °C
Dew Point: 8.8 °C 4.2 °C 6.2 °C
Humidity: 87 % 45 % 67 %
Wind Speed: 12.2 km/h 0 km/h 2.9 km/h
Wind Gust: 24.1 km/h - -
Wind:- - WSW
Pressure: 1019.2 hPa 1011.4 hPa -
Precipitation: 0 mm    
Historical Graphs
 
 
Tabular Data for October 27, 2017
Time Temperature Dew Point Pressure Wind Wind Speed Wind Gust Humidity Rainfall Rate (Hourly)
00:04 11 °C 5.3 °C 1011.4 hPa West 7.4 km/h 13 km/h 68 % 0 mm
00:09 10.9 °C 5.3 °C 1011.4 hPa WNW 2.1 km/h 7.4 km/h 68 % 0 mm
00:14 10.9 °C 5.3 °C 1011.4 hPa West 3.5 km/h 13 km/h 68 % 0 mm
00:19 10.8 °C 5.2 °C 1011.7 hPa SW 5.3 km/h 5.6 km/h 68 % 0 mm
00:24 10.8 °C 4.9 °C 1011.7 hPa WNW 5.8 km/h 9.7 km/h 67 % 0 mm
00:29 10.8 °C 5.1 °C 1011.7 hPa WSW 5.8 km/h 9.7 km/h 68 % 0 mm
00:34 10.7 °C 5.1 °C 1011.7 hPa SW 4.3 km/h 9.3 km/h 68 % 0 mm
00:39 10.7 °C 5.1 °C 1012.1 hPa West 7.4 km/h 7.4 km/h 68 % 0 mm
00:44 10.7 °C 5 °C 1012.1 hPa SW 9 km/h 14.8 km/h 68 % 0 mm
00:49 10.6 °C 4.9 °C 1012.4 hPa SW 8.9 km/h 13 km/h 68 % 0 mm
00:54 10.6 °C 4.9 °C 1012.4 hPa WSW 5.5 km/h 11.1 km/h 68 % 0 mm
00:59 10.6 °C 4.9 °C 1012.4 hPa SW 1.8 km/h 14.8 km/h 68 % 0 mm
01:04 10.6 °C 4.9 °C 1012.4 hPa WSW 6.3 km/h 20.4 km/h 68 % 0 mm
01:09 10.6 °C 4.9 °C 1012.4 hPa SW 4.2 km/h 14.8 km/h 68 % 0 mm
01:15 10.6 °C 5.1 °C 1012.4 hPa WSW 3.9 km/h 11.3 km/h 69 % 0 mm
01:20 10.6 °C 4.9 °C 1012.4 hPa WSW 4.5 km/h 18.5 km/h 68 % 0 mm
01:25 10.5 °C 5.1 °C 1012.4 hPa West 4.3 km/h 13 km/h 69 % 0 mm
01:30 10.5 °C 5.1 °C 1012.4 hPa WSW 6.3 km/h 9.3 km/h 69 % 0 mm
01:35 10.5 °C 5.3 °C 1012.8 hPa WSW 4 km/h 9.3 km/h 70 % 0 mm
01:40 10.5 °C 5.3 °C 1012.8 hPa WNW 8.5 km/h 14.8 km/h 70 % 0 mm
01:45 10.4 °C 5.2 °C 1012.8 hPa West 7.1 km/h 13 km/h 70 % 0 mm
01:50 10.4 °C 5 °C 1012.8 hPa WSW 7.2 km/h 11.1 km/h 69 % 0 mm
01:55 10.4 °C 5 °C 1013.1 hPa West 5.8 km/h 11.1 km/h 69 % 0 mm
02:00 10.4 °C 4.8 °C 1013.1 hPa WSW 3.4 km/h 14.8 km/h 68 % 0 mm
02:05 10.4 °C 4.8 °C 1013.4 hPa WSW 4 km/h 5.6 km/h 68 % 0 mm
02:10 10.4 °C 5 °C 1013.4 hPa SSW 6.1 km/h 9.7 km/h 69 % 0 mm
02:15 10.4 °C 5 °C 1013.8 hPa West 3.5 km/h 3.7 km/h 69 % 0 mm
02:20 10.4 °C 5.2 °C 1013.8 hPa SSW 5.6 km/h 5.6 km/h 70 % 0 mm
02:25 10.4 °C 4.9 °C 1013.8 hPa SW 3.9 km/h 5.6 km/h 69 % 0 mm
02:31 10.3 °C 4.9 °C 1013.8 hPa SW 1.6 km/h 8 km/h 69 % 0 mm
02:36 10.3 °C 5.1 °C 1014.1 hPa Calm   14.5 km/h 70 % 0 mm
02:40 10.3 °C 5.1 °C 1014.1 hPa WSW 0.3 km/h 5.6 km/h 70 % 0 mm
02:46 10.2 °C 5.2 °C 1014.1 hPa WSW 1.6 km/h 4.8 km/h 71 % 0 mm
02:51 10.1 °C 5.1 °C 1014.4 hPa SW 1.6 km/h 6.4 km/h 71 % 0 mm
02:55 9.9 °C 4.9 °C 1014.4 hPa SW 1 km/h 3.7 km/h 71 % 0 mm
03:01 9.8 °C 4.8 °C 1014.4 hPa WSW 0.8 km/h 3.7 km/h 71 % 0 mm
03:06 9.7 °C 4.8 °C 1014.4 hPa SW 0.3 km/h 3.7 km/h 72 % 0 mm
03:11 9.6 °C 4.8 °C 1014.4 hPa SSW 3.5 km/h 9.3 km/h 72 % 0 mm
03:16 9.4 °C 4.8 °C 1014.4 hPa SW 4.7 km/h 11.3 km/h 73 % 0 mm
03:21 9.3 °C 4.7 °C 1014.4 hPa SW 1.9 km/h 5.6 km/h 73 % 0 mm
03:26 9.1 °C 4.7 °C 1014.4 hPa WSW 3.2 km/h 7.4 km/h 74 % 0 mm
03:31 9 °C 4.6 °C 1014.4 hPa WSW 0.6 km/h 3.2 km/h 74 % 0 mm
03:36 8.9 °C 4.7 °C 1014.8 hPa WSW 0.6 km/h 7.4 km/h 75 % 0 mm
03:41 8.8 °C 4.6 °C 1014.8 hPa WSW 2.3 km/h 5.6 km/h 75 % 0 mm
03:46 8.7 °C 4.7 °C 1014.8 hPa SW 1.6 km/h 6.4 km/h 76 % 0 mm
03:51 8.6 °C 4.6 °C 1014.8 hPa SW 3.2 km/h 7.4 km/h 76 % 0 mm
03:56 8.6 °C 4.8 °C 1014.8 hPa SW 2.9 km/h 3.7 km/h 77 % 0 mm
04:01 8.5 °C 4.9 °C 1014.8 hPa Calm   5.6 km/h 78 % 0 mm
04:06 8.4 °C 4.7 °C 1015.1 hPa WSW 9.7 km/h 14.8 km/h 77 % 0 mm
04:11 8.4 °C 4.3 °C 1014.8 hPa SW 6 km/h 11.3 km/h 75 % 0 mm
04:16 8.6 °C 4.2 °C 1015.1 hPa WSW 7.2 km/h 18.5 km/h 74 % 0 mm
04:21 8.8 °C 4.6 °C 1015.1 hPa SSW 9.3 km/h 13 km/h 75 % 0 mm
04:27 9 °C 4.8 °C 1015.1 hPa SW 7.7 km/h 16.7 km/h 75 % 0 mm
04:32 9.2 °C 4.9 °C 1015.1 hPa WSW 6 km/h 18.5 km/h 75 % 0 mm
04:37 9.3 °C 4.9 °C 1015.5 hPa West 5.1 km/h 11.1 km/h 74 % 0 mm
04:42 9.3 °C 4.9 °C 1015.5 hPa West 4.7 km/h 14.8 km/h 74 % 0 mm
04:52 9.6 °C 4.8 °C 1015.5 hPa SW 0.5 km/h 3.7 km/h 72 % 0 mm
04:57 9.6 °C 5 °C 1015.8 hPa SW 1.3 km/h 5.6 km/h 73 % 0 mm
05:02 9.6 °C 5 °C 1015.8 hPa SW 0.8 km/h 3.7 km/h 73 % 0 mm
05:07 9.6 °C 4.9 °C 1015.8 hPa Calm   1.9 km/h 73 % 0 mm
05:12 9.5 °C 5.1 °C 1015.8 hPa SW 0.2 km/h 1.9 km/h 74 % 0 mm
05:17 9.4 °C 5 °C 1015.8 hPa WNW 1.4 km/h 5.6 km/h 74 % 0 mm
05:22 9.3 °C 4.9 °C 1015.8 hPa WSW 0.3 km/h 1.9 km/h 74 % 0 mm
05:27 9.3 °C 4.9 °C 1015.8 hPa West 7.2 km/h 16.7 km/h 74 % 0 mm
05:32 9.3 °C 4.7 °C 1015.8 hPa West 7.7 km/h 11.3 km/h 73 % 0 mm
05:37 9.3 °C 4.7 °C 1015.8 hPa West 4 km/h 11.3 km/h 73 % 0 mm
05:42 9.4 °C 4.8 °C 1015.8 hPa West 8.5 km/h 9.7 km/h 73 % 0 mm
05:47 9.5 °C 4.7 °C 1015.8 hPa WSW 5.3 km/h 13 km/h 72 % 0 mm
05:53 9.6 °C 4.8 °C 1015.8 hPa WSW 6.1 km/h 14.8 km/h 72 % 0 mm
05:58 9.7 °C 4.7 °C 1016.1 hPa West 7.6 km/h 14.8 km/h 71 % 0 mm
06:03 9.8 °C 4.8 °C 1016.1 hPa SW 5.1 km/h 13 km/h 71 % 0 mm
06:08 9.9 °C 4.7 °C 1016.5 hPa West 12.2 km/h 24.1 km/h 70 % 0 mm
06:13 10 °C 4.6 °C 1016.5 hPa West 8 km/h 11.3 km/h 69 % 0 mm
06:18 10.1 °C 4.6 °C 1016.5 hPa SW 9.8 km/h 16.7 km/h 69 % 0 mm
06:23 10.1 °C 4.7 °C 1016.5 hPa West 7.7 km/h 14.8 km/h 69 % 0 mm
06:28 10.2 °C 4.7 °C 1016.1 hPa West 9.5 km/h 16.7 km/h 69 % 0 mm
06:33 10.2 °C 4.7 °C 1016.5 hPa WNW 3.7 km/h 8 km/h 69 % 0 mm
06:38 10.2 °C 4.8 °C 1016.5 hPa West 4.2 km/h 7.4 km/h 69 % 0 mm
06:43 10.2 °C 5 °C 1016.5 hPa WSW 4.8 km/h 11.1 km/h 70 % 0 mm
06:48 10.2 °C 5 °C 1016.5 hPa West 6.4 km/h 14.8 km/h 70 % 0 mm
06:53 10.2 °C 5 °C 1016.5 hPa WNW 6.8 km/h 16.7 km/h 70 % 0 mm
07:03 10.2 °C 5.2 °C 1016.5 hPa SW 3.2 km/h 8 km/h 71 % 0 mm
07:08 10.2 °C 5.2 °C 1016.5 hPa West 9.5 km/h 16.7 km/h 71 % 0 mm
07:13 10.2 °C 5.4 °C 1016.8 hPa West 10 km/h 14.8 km/h 72 % 0 mm
07:19 10.2 °C 5.4 °C 1016.8 hPa WSW 5.5 km/h 12.9 km/h 72 % 0 mm
07:24 10.2 °C 5.4 °C 1016.8 hPa WSW 4.3 km/h 13 km/h 72 % 0 mm
07:29 10.2 °C 5.6 °C 1017.2 hPa West 4.2 km/h 11.1 km/h 73 % 0 mm
07:34 10.2 °C 5.6 °C 1017.2 hPa WNW 4.7 km/h 9.3 km/h 73 % 0 mm
07:39 10.2 °C 5.6 °C 1017.2 hPa WSW 3.5 km/h 8 km/h 73 % 0 mm
07:44 10.2 °C 5.8 °C 1017.2 hPa SSW 7.1 km/h 11.1 km/h 74 % 0 mm
07:49 10.2 °C 5.8 °C 1017.2 hPa West 6.6 km/h 14.5 km/h 74 % 0 mm
07:54 10.2 °C 5.8 °C 1017.5 hPa WSW 5 km/h 17.7 km/h 74 % 0 mm
07:59 10.3 °C 5.8 °C 1017.5 hPa West 6.4 km/h 11.1 km/h 74 % 0 mm
08:04 10.3 °C 5.8 °C 1017.5 hPa West 4.7 km/h 9.7 km/h 74 % 0 mm
08:09 10.3 °C 5.9 °C 1017.8 hPa WNW 4 km/h 14.5 km/h 74 % 0 mm
08:14 10.4 °C 5.9 °C 1017.8 hPa West 1.3 km/h 11.1 km/h 74 % 0 mm
08:19 10.4 °C 5.8 °C 1017.8 hPa WSW 6.1 km/h 16.7 km/h 73 % 0 mm
08:24 10.5 °C 5.9 °C 1017.8 hPa WNW 4.5 km/h 13 km/h 73 % 0 mm
08:29 10.6 °C 5.9 °C 1017.8 hPa West 3.5 km/h 16.7 km/h 73 % 0 mm
08:40 10.7 °C 5.8 °C 1018.2 hPa WSW 0.5 km/h 6.4 km/h 72 % 0 mm
08:45 10.7 °C 5.9 °C 1018.2 hPa WSW 1.8 km/h 9.3 km/h 72 % 0 mm
08:50 10.7 °C 5.9 °C 1018.2 hPa NNW 4.3 km/h 13 km/h 72 % 0 mm
08:55 10.8 °C 5.8 °C 1018.2 hPa WSW 2.3 km/h 9.3 km/h 71 % 0 mm
09:00 10.9 °C 6.1 °C 1018.2 hPa WSW 0.8 km/h 3.2 km/h 72 % 0 mm
09:05 10.9 °C 6.1 °C 1018.2 hPa Calm   1.9 km/h 72 % 0 mm
09:10 11 °C 6.3 °C 1018.5 hPa West 5.5 km/h 9.3 km/h 73 % 0 mm
09:15 11.1 °C 6.2 °C 1018.5 hPa NW 3.4 km/h 7.4 km/h 72 % 0 mm
09:20 11.1 °C 6.3 °C 1018.5 hPa West 2.7 km/h 5.6 km/h 72 % 0 mm
09:25 11.2 °C 6.3 °C 1018.5 hPa SW 4.3 km/h 9.3 km/h 72 % 0 mm
09:30 11.4 °C 6.3 °C 1018.5 hPa West 3.7 km/h 11.1 km/h 71 % 0 mm
09:35 11.7 °C 6.8 °C 1018.5 hPa WSW 4 km/h 11.1 km/h 72 % 0 mm
09:40 11.9 °C 6.8 °C 1018.8 hPa West 5 km/h 7.4 km/h 71 % 0 mm
09:45 12.2 °C 6.7 °C 1018.5 hPa SW 7.7 km/h 11.1 km/h 69 % 0 mm
09:50 12.4 °C 6.5 °C 1018.5 hPa WSW 6.4 km/h 18.5 km/h 67 % 0 mm
09:55 12.7 °C 6.5 °C 1018.8 hPa West 8.2 km/h 16.7 km/h 66 % 0 mm
10:01 12.8 °C 6.6 °C 1018.8 hPa West 4 km/h 8 km/h 66 % 0 mm
10:06 12.9 °C 6.4 °C 1018.5 hPa NW 4.8 km/h 5.6 km/h 65 % 0 mm
10:11 13 °C 6.8 °C 1018.8 hPa SW 2.4 km/h 5.6 km/h 66 % 0 mm
10:16 13.1 °C 6.7 °C 1018.8 hPa NW 8.2 km/h 11.3 km/h 65 % 0 mm
10:21 13.3 °C 6.8 °C 1018.8 hPa WNW 6.1 km/h 16.7 km/h 65 % 0 mm
10:26 13.5 °C 7.1 °C 1018.8 hPa WNW 1.4 km/h 9.3 km/h 65 % 0 mm
10:31 13.7 °C 7.5 °C 1018.8 hPa WNW 7.7 km/h 11.1 km/h 66 % 0 mm
10:36 13.9 °C 7.4 °C 1018.8 hPa WSW 10.1 km/h 18.5 km/h 65 % 0 mm
10:41 14.1 °C 7.8 °C 1018.8 hPa WSW 7.4 km/h 14.5 km/h 66 % 0 mm
10:44 14.2 °C 7.7 °C 1018.8 hPa NW 8.5 km/h 14.8 km/h 65 % 0 mm
10:49 14.4 °C 8.2 °C 1018.5 hPa NW 2.4 km/h 14.8 km/h 66 % 0 mm
10:54 14.7 °C 7.7 °C 1018.8 hPa West 2.4 km/h 7.4 km/h 63 % 0 mm
11:04 15.2 °C 8.2 °C 1018.5 hPa WNW 1.6 km/h 9.3 km/h 63 % 0 mm
11:09 15.4 °C 7.9 °C 1018.5 hPa WSW 6.8 km/h 13 km/h 61 % 0 mm
11:14 15.6 °C 7.6 °C 1018.5 hPa West 6.1 km/h 13 km/h 59 % 0 mm
11:19 15.8 °C 7.5 °C 1018.8 hPa West 6.6 km/h 9.3 km/h 58 % 0 mm
11:24 16.1 °C 8.1 °C 1018.8 hPa WSW 3.9 km/h 8 km/h 59 % 0 mm
11:29 16.3 °C 8.8 °C 1018.8 hPa NW 1.8 km/h 9.7 km/h 61 % 0 mm
11:34 16.6 °C 8.3 °C 1018.5 hPa NW 2.7 km/h 11.3 km/h 58 % 0 mm
11:39 16.8 °C 7.9 °C 1018.5 hPa WNW 1.9 km/h 5.6 km/h 56 % 0 mm
11:45 17 °C 8.2 °C 1018.5 hPa SSW 4.2 km/h 9.7 km/h 56 % 0 mm
11:50 17.2 °C 8.6 °C 1018.5 hPa WSW 1.4 km/h 9.3 km/h 57 % 0 mm
11:55 17.3 °C 7.7 °C 1018.5 hPa SSW 7.4 km/h 9.3 km/h 53 % 0 mm
11:57 17.4 °C 8.3 °C 1018.5 hPa WSW 3.2 km/h 9.3 km/h 55 % 0 mm
12:02 17.6 °C 8.1 °C 1018.5 hPa SW 1 km/h 5.6 km/h 54 % 0 mm
12:07 17.6 °C 7.9 °C 1018.5 hPa SW 6.4 km/h 9.3 km/h 53 % 0 mm
12:12 17.7 °C 7.4 °C 1018.2 hPa WNW 3.5 km/h 5.6 km/h 51 % 0 mm
12:17 17.7 °C 7.9 °C 1018.2 hPa West 2.1 km/h 8 km/h 53 % 0 mm
12:23 17.6 °C 7.3 °C 1018.2 hPa WNW 3.4 km/h 3.4 km/h 51 % 0 mm
12:28 17.5 °C 7.8 °C 1018.2 hPa WNW 0.5 km/h 3.7 km/h 53 % 0 mm
12:33 17.3 °C 7.1 °C 1018.2 hPa NW 2.6 km/h 5.6 km/h 51 % 0 mm
12:38 17.2 °C 6.7 °C 1018.2 hPa West 3.1 km/h 11.1 km/h 50 % 0 mm
12:43 17.1 °C 7.1 °C 1018.2 hPa West 3.4 km/h 5.6 km/h 52 % 0 mm
12:48 17 °C 7.1 °C 1018.2 hPa West 3.1 km/h 5.6 km/h 52 % 0 mm
12:53 17.1 °C 6.3 °C 1018.2 hPa WNW 6.9 km/h 11.1 km/h 49 % 0 mm
12:58 17.1 °C 6.6 °C 1018.2 hPa West 4.2 km/h 7.4 km/h 50 % 0 mm
13:03 17.2 °C 6.3 °C 1018.2 hPa West 6.4 km/h 11.1 km/h 49 % 0 mm
13:08 17.2 °C 7.2 °C 1017.8 hPa Calm   1.6 km/h 52 % 0 mm
13:13 17.1 °C 6.9 °C 1017.8 hPa West 3.4 km/h 5.6 km/h 51 % 0 mm
13:18 17 °C 6.5 °C 1018.2 hPa NW 3.1 km/h 9.3 km/h 50 % 0 mm
13:23 16.8 °C 6.6 °C 1017.8 hPa West 5.8 km/h 9.7 km/h 51 % 0 mm
13:28 16.8 °C 6.6 °C 1017.8 hPa NNE 2.4 km/h 8 km/h 51 % 0 mm
13:33 16.8 °C 7.4 °C 1017.8 hPa SW 1.4 km/h 7.4 km/h 54 % 0 mm
13:38 16.8 °C 6.6 °C 1017.8 hPa West 4.3 km/h 9.3 km/h 51 % 0 mm
13:44 16.9 °C 6.7 °C 1017.8 hPa NW 5 km/h 9.3 km/h 51 % 0 mm
13:49 17.2 °C 5.8 °C 1017.8 hPa WNW 7.6 km/h 11.1 km/h 47 % 0 mm
13:54 17.3 °C 6.2 °C 1017.8 hPa NW 3.4 km/h 14.8 km/h 48 % 0 mm
13:59 17.6 °C 6.1 °C 1017.8 hPa NNW 2.9 km/h 11.1 km/h 47 % 0 mm
14:04 17.7 °C 5.6 °C 1017.8 hPa WNW 4.5 km/h 9.3 km/h 45 % 0 mm
14:09 17.9 °C 6.1 °C 1017.8 hPa West 6.6 km/h 9.3 km/h 46 % 0 mm
14:14 18 °C 6.8 °C 1017.5 hPa West 3.1 km/h 7.4 km/h 48 % 0 mm
14:19 18.2 °C 6.3 °C 1017.5 hPa WNW 7.1 km/h 9.3 km/h 46 % 0 mm
14:24 18.2 °C 6.1 °C 1017.5 hPa WNW 4.3 km/h 9.7 km/h 45 % 0 mm
14:29 18.3 °C 6.1 °C 1017.5 hPa North 3.2 km/h 5.6 km/h 45 % 0 mm
14:34 18.3 °C 6.8 °C 1017.5 hPa West 4.8 km/h 7.4 km/h 47 % 0 mm
14:44 18.4 °C 6.9 °C 1017.5 hPa West 1 km/h 1.9 km/h 47 % 0 mm
14:49 18.4 °C 6.9 °C 1017.5 hPa SW 8.4 km/h 14.5 km/h 47 % 0 mm
14:54 18.4 °C 6.2 °C 1017.5 hPa SW 6.6 km/h 13 km/h 45 % 0 mm
14:59 18.4 °C 6.6 °C 1017.5 hPa SW 2.7 km/h 9.3 km/h 46 % 0 mm
15:05 18.4 °C 6.9 °C 1017.5 hPa SW 5.3 km/h 13 km/h 47 % 0 mm
15:10 18.4 °C 6.9 °C 1017.5 hPa WSW 6.4 km/h 9.7 km/h 47 % 0 mm
15:15 18.3 °C 6.1 °C 1017.5 hPa WSW 1.1 km/h 9.3 km/h 45 % 0 mm
15:20 18.2 °C 6.3 °C 1017.5 hPa SSW 2.4 km/h 5.6 km/h 46 % 0 mm
15:25 18.1 °C 6.3 °C 1017.5 hPa WSW 3.5 km/h 5.6 km/h 46 % 0 mm
15:30 17.9 °C 6.2 °C 1017.5 hPa SSW 0.3 km/h 1.9 km/h 46 % 0 mm
15:35 17.8 °C 6 °C 1017.5 hPa SW 8.5 km/h 11.1 km/h 46 % 0 mm
15:40 17.6 °C 5.8 °C 1017.5 hPa ESE 0.5 km/h 3.7 km/h 46 % 0 mm
15:45 17.4 °C 6 °C 1017.5 hPa SSW 5.6 km/h 7.4 km/h 47 % 0 mm
15:50 17.3 °C 5.8 °C 1017.5 hPa SSW 3.1 km/h 7.4 km/h 47 % 0 mm
15:55 17.2 °C 6.1 °C 1017.5 hPa South 0.5 km/h 3.2 km/h 48 % 0 mm
16:00 17.1 °C 5.7 °C 1017.5 hPa WNW 4.8 km/h 6.4 km/h 47 % 0 mm
16:05 16.9 °C 6.2 °C 1017.5 hPa WSW 4 km/h 7.4 km/h 49 % 0 mm
16:10 16.8 °C 6.3 °C 1017.5 hPa Calm     50 % 0 mm
16:15 16.7 °C 6.5 °C 1017.5 hPa SW 4.8 km/h 9.3 km/h 51 % 0 mm
16:20 16.6 °C 6.1 °C 1017.5 hPa SW 0.6 km/h 1.9 km/h 50 % 0 mm
16:25 16.6 °C 6.4 °C 1017.5 hPa SW 2.7 km/h 5.6 km/h 51 % 0 mm
16:31 16.4 °C 6.6 °C 1017.5 hPa Calm   8 km/h 52 % 0 mm
16:36 16.3 °C 6.4 °C 1017.8 hPa Calm   8 km/h 52 % 0 mm
16:38 16.3 °C 6.7 °C 1017.8 hPa SSW 0.8 km/h 5.6 km/h 53 % 0 mm
16:43 16.2 °C 6.6 °C 1017.8 hPa Calm   3.7 km/h 53 % 0 mm
16:48 16.1 °C 6.4 °C 1017.8 hPa SSW 1.3 km/h 3.2 km/h 53 % 0 mm
16:53 15.9 °C 6.6 °C 1017.8 hPa Calm     54 % 0 mm
16:58 15.8 °C 6.5 °C 1017.8 hPa SSW 0.3 km/h 3.2 km/h 54 % 0 mm
17:03 15.7 °C 6.7 °C 1017.8 hPa Calm   1.9 km/h 55 % 0 mm
17:08 15.6 °C 6.6 °C 1017.8 hPa Calm   1.9 km/h 55 % 0 mm
17:13 15.5 °C 6.8 °C 1017.8 hPa SSW 1.6 km/h 3.7 km/h 56 % 0 mm
17:19 15.3 °C 6.6 °C 1017.8 hPa Calm   5.6 km/h 56 % 0 mm
17:24 15.2 °C 6.5 °C 1017.8 hPa Calm   1.9 km/h 56 % 0 mm
17:29 15.1 °C 6.6 °C 1018.2 hPa SSW 0.2 km/h 3.7 km/h 57 % 0 mm
17:34 14.9 °C 6.4 °C 1018.2 hPa Calm   1.9 km/h 57 % 0 mm
17:39 14.8 °C 6.6 °C 1017.8 hPa SSW 0.2 km/h 1.9 km/h 58 % 0 mm
17:44 14.6 °C 6.4 °C 1018.2 hPa Calm     58 % 0 mm
17:49 14.4 °C 6.3 °C 1018.2 hPa Calm     58 % 0 mm
17:54 14.3 °C 6.4 °C 1018.2 hPa Calm     59 % 0 mm
17:59 14.2 °C 6.5 °C 1018.2 hPa Calm     60 % 0 mm
18:04 13.9 °C 6.6 °C 1018.2 hPa Calm     61 % 0 mm
18:09 13.8 °C 6.6 °C 1018.2 hPa Calm     62 % 0 mm
18:14 13.6 °C 6.7 °C 1018.2 hPa Calm   1.6 km/h 63 % 0 mm
18:19 13.4 °C 6.6 °C 1018.2 hPa Calm     63 % 0 mm
18:24 13.2 °C 7 °C 1018.5 hPa Calm     66 % 0 mm
18:29 12.9 °C 6.9 °C 1018.2 hPa Calm     67 % 0 mm
18:34 12.8 °C 6.8 °C 1018.5 hPa Calm     67 % 0 mm
18:40 12.7 °C 6.7 °C 1018.5 hPa Calm     67 % 0 mm
18:45 12.5 °C 6.8 °C 1018.5 hPa Calm   1.9 km/h 68 % 0 mm
18:50 12.3 °C 6.6 °C 1018.5 hPa Calm     68 % 0 mm
18:55 12.2 °C 6.4 °C 1018.8 hPa Calm     68 % 0 mm
19:00 12.1 °C 6.3 °C 1018.8 hPa Calm     68 % 0 mm
19:05 11.9 °C 6.7 °C 1018.8 hPa Calm   1.9 km/h 70 % 0 mm
19:10 11.8 °C 6.5 °C 1018.8 hPa Calm     70 % 0 mm
19:15 11.7 °C 6.4 °C 1018.8 hPa Calm     70 % 0 mm
19:20 11.6 °C 6.5 °C 1018.8 hPa Calm     71 % 0 mm
19:25 11.4 °C 6.9 °C 1018.8 hPa Calm     74 % 0 mm
19:30 11.3 °C 6.9 °C 1018.8 hPa Calm     74 % 0 mm
19:35 11.2 °C 6.8 °C 1018.8 hPa Calm     74 % 0 mm
19:40 11.1 °C 6.7 °C 1018.8 hPa Calm     74 % 0 mm
19:45 11 °C 6.6 °C 1018.8 hPa Calm     74 % 0 mm
19:47 11 °C 6.6 °C 1018.8 hPa Calm     74 % 0 mm
19:52 10.8 °C 6.8 °C 1018.8 hPa Calm     76 % 0 mm
19:57 10.8 °C 6.7 °C 1018.8 hPa Calm     76 % 0 mm
20:02 10.7 °C 6.6 °C 1018.8 hPa Calm     76 % 0 mm
20:07 10.6 °C 6.7 °C 1018.8 hPa Calm     77 % 0 mm
20:12 10.4 °C 6.6 °C 1018.8 hPa Calm     77 % 0 mm
20:17 10.3 °C 6.8 °C 1018.5 hPa Calm     79 % 0 mm
20:22 10.3 °C 6.8 °C 1018.8 hPa Calm     79 % 0 mm
20:27 10.2 °C 6.9 °C 1018.8 hPa Calm     80 % 0 mm
20:32 10.2 °C 7.1 °C 1018.8 hPa Calm   1.9 km/h 81 % 0 mm
20:37 10.1 °C 7 °C 1019.2 hPa Calm     81 % 0 mm
20:42 10.1 °C 6.9 °C 1018.8 hPa Calm     81 % 0 mm
20:47 10.1 °C 7.1 °C 1018.8 hPa Calm     82 % 0 mm
20:52 10 °C 7.1 °C 1018.8 hPa Calm     82 % 0 mm
20:57 10 °C 7.1 °C 1018.8 hPa Calm     82 % 0 mm
21:03 9.9 °C 7 °C 1018.8 hPa Calm     82 % 0 mm
21:08 9.9 °C 7 °C 1018.8 hPa Calm     82 % 0 mm
21:09 9.9 °C 7 °C 1018.8 hPa Calm     82 % 0 mm
21:14 9.9 °C 6.9 °C 1018.8 hPa Calm     82 % 0 mm
21:19 9.9 °C 6.9 °C 1018.8 hPa Calm     82 % 0 mm
21:24 9.9 °C 7.1 °C 1018.8 hPa Calm     83 % 0 mm
21:29 9.8 °C 7.1 °C 1018.8 hPa Calm     83 % 0 mm
21:34 9.8 °C 7.3 °C 1018.5 hPa Calm     84 % 0 mm
21:39 9.8 °C 7.4 °C 1018.5 hPa Calm     85 % 0 mm
21:44 9.8 °C 7.6 °C 1018.5 hPa Calm     86 % 0 mm
21:49 9.8 °C 7.6 °C 1018.8 hPa Calm     86 % 0 mm
21:50 9.9 °C 7.7 °C 1018.8 hPa Calm     86 % 0 mm
21:56 9.9 °C 7.7 °C 1018.5 hPa Calm   1.9 km/h 86 % 0 mm
22:01 9.9 °C 7.7 °C 1018.8 hPa Calm     86 % 0 mm
22:06 9.9 °C 7.7 °C 1018.5 hPa Calm     86 % 0 mm
22:11 9.9 °C 7.9 °C 1018.5 hPa Calm     87 % 0 mm
22:16 9.9 °C 7.7 °C 1018.5 hPa Calm     86 % 0 mm
22:21 9.9 °C 7.7 °C 1018.5 hPa Calm     86 % 0 mm
22:26 9.9 °C 7.7 °C 1018.5 hPa Calm     86 % 0 mm
22:31 9.8 °C 7.6 °C 1018.5 hPa Calm     86 % 0 mm
22:36 9.8 °C 7.6 °C 1018.8 hPa Calm     86 % 0 mm
22:41 9.8 °C 7.6 °C 1018.8 hPa Calm     86 % 0 mm
22:46 9.7 °C 7.5 °C 1018.5 hPa Calm     86 % 0 mm
22:51 9.7 °C 7.5 °C 1018.5 hPa Calm     86 % 0 mm
22:56 9.7 °C 7.4 °C 1018.5 hPa Calm     86 % 0 mm
23:01 9.6 °C 7.6 °C 1018.5 hPa Calm     87 % 0 mm
23:06 9.6 °C 7.5 °C 1018.5 hPa Calm     87 % 0 mm
23:12 9.5 °C 7.4 °C 1018.5 hPa Calm     87 % 0 mm
23:17 9.5 °C 7.4 °C 1018.5 hPa Calm     87 % 0 mm
23:22 9.4 °C 7.4 °C 1018.2 hPa Calm     87 % 0 mm
23:26 9.4 °C 7.3 °C 1018.5 hPa Calm     87 % 0 mm
23:33 9.3 °C 7.3 °C 1018.5 hPa Calm     87 % 0 mm
23:38 9.3 °C 7.2 °C 1018.2 hPa Calm     87 % 0 mm
23:43 9.2 °C 7.2 °C 1018.2 hPa Calm     87 % 0 mm
23:48 9.2 °C 7.2 °C 1018.2 hPa Calm     87 % 0 mm
23:53 9.2 °C 7.1 °C 1018.2 hPa Calm     87 % 0 mm
23:58 9.1 °C 7 °C 1018.5 hPa Calm     87 % 0 mm
Crab Meadow Weather
Compliments of Weather Underground - 3 mb

Script developed by  Jim McMurry - jmcmurry@mwt.net Adapted for the template by  Wim van der Kuil - Leuven-Template.eu

Weather Terms: Heavy Snow Warning - Snowfall of 6 inches or more in 12 hours or less, or 8 inches or more in 24 hours or less.